Wind_Speed
30 31 31 31 32 31 26 23 27 23 22 24 22 20 19 22 29 25 26 23 23 23 21 21 20 21 21 21 22 23 22 21 20 19 18 17 17 17 17 17 17 16 15 15 15 15 15 15 15
28 28 29 30 29 28 23 25 32 26 30 22 22 22 22 27 26 26 24 22 21 21 23 23 21 21 22 22 23 24 24 24 24 23 21 19 18 18 17 17 17 17 17 16 16 16 16 17 17
28 29 30 28 25 21 20 27 33 31 27 26 25 25 25 32 23 23 26 25 23 23 23 23 22 22 23 24 24 24 24 25 24 24 23 21 20 19 18 17 18 18 18 18 18 17 16 15 14
30 30 29 28 21 18 20 27 34 29 26 28 28 25 31 29 24 21 28 26 25 22 22 24 24 23 22 23 23 23 23 23 23 24 24 23 21 20 18 18 18 18 18 18 17 17 18 18 18
33 32 32 28 21 20 23 27 32 23 28 31 28 28 35 29 24 24 26 26 25 24 24 24 25 26 25 24 24 24 26 25 25 25 25 24 22 21 19 18 18 17 17 17 16 16 16 16 16
36 35 34 28 22 22 25 28 30 25 27 29 29 32 39 29 28 26 27 27 27 25 25 26 27 26 27 25 26 25 25 26 25 25 24 23 22 21 20 19 18 18 18 17 17 16 16 15 15
37 37 35 31 26 26 25 26 33 28 29 26 28 32 38 37 29 29 29 30 28 28 27 28 27 28 28 28 26 25 24 24 24 24 24 23 22 21 21 20 18 18 19 18 18 18 17 17 17
37 40 39 35 30 23 26 32 36 30 29 30 31 24 37 38 31 33 32 30 30 29 28 28 28 28 28 27 26 24 23 23 24 23 23 23 23 22 23 21 20 20 20 19 20 20 19 20 21
40 42 41 33 31 24 29 35 40 29 34 33 29 24 37 37 28 31 32 32 33 31 31 29 29 28 28 28 27 26 24 23 23 22 23 22 23 24 24 24 23 22 22 22 23 24 23 24 25
42 41 37 34 31 32 36 38 39 31 37 35 32 32 30 32 31 32 34 35 35 33 34 34 29 29 29 29 30 29 28 27 25 24 23 22 21 22 24 24 25 25 24 25 25 26 27 27 27
43 42 37 34 33 38 35 36 34 35 37 33 36 34 35 35 30 30 34 37 39 37 35 34 34 31 30 30 31 29 30 31 29 26 24 23 24 25 24 24 25 26 27 28 27 28 28 29 29
42 44 42 36 36 36 34 35 37 36 34 39 39 38 38 34 31 30 31 33 34 37 39 38 37 38 32 34 32 31 29 31 31 29 26 26 27 28 28 26 26 28 30 31 31 31 31 31 31
42 45 43 39 38 34 35 37 37 36 37 34 37 37 37 31 32 35 34 34 35 34 34 36 40 42 38 37 35 34 32 32 32 30 30 30 29 30 30 28 27 27 30 31 31 32 33 33 33
43 45 44 42 36 34 37 37 39 39 34 36 39 36 34 33 29 36 33 31 33 35 35 35 38 39 42 38 37 36 34 32 31 31 33 33 33 33 31 30 29 28 27 29 30 31 32 33 34
44 41 43 44 36 38 38 37 37 38 38 37 36 36 33 33 33 34 34 33 32 33 35 35 37 36 38 39 38 37 35 33 32 33 34 35 34 34 33 33 31 30 29 28 30 32 33 33 34
43 45 43 42 40 40 40 34 33 38 36 34 34 34 33 30 32 34 34 34 32 31 36 34 32 34 34 36 39 39 37 34 31 34 32 34 33 34 33 33 34 34 33 31 33 33 34 34 35
43 43 42 43 42 41 41 37 36 38 33 30 32 32 29 25 27 31 34 36 36 33 34 34 33 30 35 35 36 39 39 38 31 35 31 31 33 35 34 33 34 35 36 35 35 35 36 36 37
39 42 43 41 44 42 42 39 39 38 35 32 32 31 30 28 26 26 31 36 37 36 36 37 34 30 34 38 37 36 40 39 34 34 32 30 34 34 34 34 34 35 38 38 37 38 38 38 38
41 41 40 39 40 42 41 41 40 40 39 35 35 36 35 34 32 29 29 32 37 38 40 42 39 35 36 37 36 37 38 40 39 37 34 33 34 34 33 33 35 36 37 38 39 39 39 40 41
36 36 35 35 38 43 41 41 42 42 40 41 40 41 40 39 38 36 34 32 33 36 41 44 45 41 38 41 38 39 39 38 40 37 36 36 35 35 35 34 35 35 39 40 39 39 40 41 43
33 35 33 34 35 36 41 42 41 43 41 41 42 42 43 43 44 43 41 37 36 36 37 41 45 47 45 41 44 41 36 38 40 39 41 41 39 37 36 36 35 37 38 41 40 41 42 43 44
29 30 28 26 28 30 32 41 36 36 40 41 42 45 46 47 48 47 45 43 43 41 39 39 41 44 50 48 46 43 40 40 42 41 42 42 41 41 38 36 36 38 40 42 41 43 44 45 46
23 23 23 25 28 29 31 38 38 39 41 46 51 53 55 55 55 55 54 53 53 51 48 45 45 45 48 53 51 48 44 41 41 43 43 40 42 43 39 36 37 38 40 41 42 43 44 45 47
20 22 25 28 32 35 37 40 36 48 48 52 57 61 64 66 65 65 65 64 62 59 57 54 50 46 47 48 48 51 49 43 43 44 43 42 42 41 41 39 38 40 42 41 42 44 45 47 49
22 24 29 33 35 37 43 45 40 47 48 52 52 49 50 56 61 62 63 68 69 67 63 60 56 51 45 46 47 49 49 48 45 43 44 44 43 41 42 42 41 40 42 42 44 45 45 46 47
24 27 29 35 39 42 43 45 42 40 43 49 54 55 52 52 54 59 61 55 59 64 67 63 61 58 50 49 46 46 51 50 47 44 45 46 44 43 43 42 40 41 41 43 45 46 47 48 48
25 28 32 36 38 44 45 40 39 44 44 47 47 51 53 51 54 59 57 58 55 57 62 63 61 59 54 52 47 49 52 47 47 46 46 46 44 45 45 43 41 41 41 43 45 47 48 48 48
30 29 31 34 40 43 43 43 44 46 40 43 48 51 54 57 55 53 53 59 50 49 53 60 58 58 57 51 50 50 48 46 46 46 46 46 44 45 44 43 41 39 41 43 44 46 48 48 50
28 30 32 37 39 45 45 47 49 38 43 48 48 50 54 52 53 46 44 48 52 52 46 53 51 56 54 51 49 48 46 47 46 46 45 44 45 42 42 43 40 40 41 43 45 46 46 50 52
29 27 32 38 38 44 46 48 35 37 45 48 53 49 52 44 45 42 33 41 46 49 47 42 48 51 54 48 44 46 48 49 46 45 43 44 42 42 42 41 39 41 42 44 45 45 47 51 51
Wind_Direction
237 239 237 238 239 239 239 244 247 244 245 242 250 257 260 266 256 253 255 259 257 257 253 257 248 245 245 247 247 248 247 250 252 253 258 267 272 271 265 262 261 260 261 264 266 267 268 268 272
235 235 237 238 239 242 238 240 250 242 243 247 248 244 245 251 252 258 258 261 257 259 261 261 260 252 249 247 247 248 250 253 255 255 257 259 262 265 262 260 260 260 262 265 267 268 272 275 276
233 234 236 236 238 244 241 236 245 242 246 245 246 247 244 243 257 260 262 262 260 259 259 260 263 263 255 251 249 247 249 252 255 257 257 259 260 259 255 255 256 258 260 262 265 268 270 271 273
234 236 237 239 237 234 236 244 246 251 246 246 248 250 252 253 253 246 253 258 261 259 261 259 258 259 264 262 257 259 254 253 253 257 257 257 255 254 253 256 256 259 260 263 266 268 270 271 271
237 239 240 242 241 237 241 239 255 254 248 245 243 250 250 251 251 251 253 257 259 263 257 255 258 261 261 264 265 266 261 257 256 256 257 257 256 257 255 256 261 263 262 264 266 267 268 269 273
241 242 245 251 249 241 245 251 250 250 252 251 244 244 254 250 249 249 250 252 254 254 258 257 260 265 268 268 266 263 263 264 266 263 259 256 255 257 256 259 261 262 262 264 265 264 264 267 267
244 244 250 253 248 241 245 250 258 251 250 256 248 242 253 250 249 254 254 253 252 252 254 258 261 266 268 271 270 268 267 268 268 270 268 265 260 259 256 255 258 262 264 261 259 257 257 259 262
243 246 246 248 253 254 249 252 253 253 250 249 253 249 252 255 245 249 253 256 256 258 258 260 263 267 270 274 276 274 271 272 273 273 272 272 271 269 268 263 261 260 258 258 257 254 255 261 270
240 244 249 253 257 259 246 248 255 246 249 249 252 244 250 261 253 256 257 258 259 259 261 259 265 270 272 274 275 275 274 271 270 269 271 272 274 273 269 267 264 262 260 258 259 260 262 268 274
242 244 249 251 253 252 242 242 250 247 249 246 246 244 253 256 251 248 253 256 260 261 262 263 262 266 271 274 275 275 273 270 269 268 272 276 277 276 274 269 266 265 264 264 263 264 265 269 274
246 243 244 245 248 254 247 248 255 249 249 247 251 248 246 249 253 251 253 255 257 259 262 265 264 261 266 269 271 275 276 275 275 273 273 273 276 276 277 276 270 268 266 266 267 269 269 271 275
243 243 242 238 246 254 250 246 247 247 251 245 248 249 254 255 260 255 253 257 257 259 258 260 263 263 261 266 269 270 272 272 274 274 276 275 275 278 279 280 279 274 272 271 271 271 273 275 277
239 239 241 240 243 249 247 247 250 248 247 253 255 253 254 253 253 253 255 256 260 258 258 259 258 261 261 261 264 268 270 271 272 275 271 278 277 279 281 283 280 276 271 272 274 275 274 274 275
238 237 241 242 244 245 245 248 247 246 252 249 250 252 251 255 242 251 251 252 253 257 256 256 260 259 259 260 262 264 266 267 269 266 269 273 276 278 279 283 282 282 277 276 276 277 276 275 277
238 236 241 244 240 243 244 244 246 247 244 247 251 255 255 251 250 247 251 248 250 255 257 257 257 262 264 262 261 265 269 269 269 267 267 269 272 276 280 280 282 283 281 278 276 278 280 280 279
236 237 239 243 241 240 242 241 240 245 243 244 248 252 254 256 256 253 250 248 248 250 257 258 258 259 263 265 262 262 264 267 267 269 269 272 275 276 279 280 280 279 280 278 277 278 280 280 279
235 237 239 241 240 238 239 237 233 242 243 241 245 250 257 258 259 257 251 246 248 251 252 259 262 259 260 265 265 265 264 266 268 270 271 273 275 276 278 282 284 281 279 279 278 279 279 280 281
239 236 237 238 241 237 237 236 237 239 242 240 245 251 255 254 253 252 252 249 248 250 250 253 258 259 259 262 266 268 267 266 268 270 273 274 275 279 282 283 285 284 279 280 280 278 280 279 280
238 240 241 244 243 243 238 235 235 238 241 241 246 248 250 252 251 246 240 241 247 248 249 253 254 259 264 265 265 268 268 266 264 266 272 276 278 279 282 286 283 284 278 278 279 280 281 281 280
243 244 243 243 245 244 242 238 238 240 241 246 246 250 252 253 253 253 246 242 242 244 247 251 254 256 258 264 265 263 264 268 268 268 271 271 273 276 280 284 282 284 284 278 278 280 282 282 282
241 244 244 245 247 249 250 241 246 245 249 252 252 250 252 253 253 254 254 250 244 243 245 251 254 254 255 255 261 262 265 268 270 270 269 270 272 276 281 285 285 281 282 280 280 280 281 284 285
238 241 243 245 246 249 253 250 246 251 251 253 255 253 249 250 250 249 248 249 251 251 248 252 256 258 255 250 253 261 262 262 265 268 269 271 272 274 277 281 280 281 279 280 281 281 282 284 285
231 241 246 254 260 260 264 267 248 253 254 259 262 261 257 253 253 255 253 250 251 253 253 251 255 254 255 256 251 255 259 259 263 264 267 269 270 271 273 277 279 283 283 282 281 283 284 285 287
238 249 259 264 268 269 271 272 259 265 268 270 271 269 264 261 258 257 256 256 256 255 256 256 253 254 255 258 253 251 254 256 257 260 263 266 268 270 273 276 278 281 283 284 284 285 286 287 288
250 259 266 269 271 273 276 274 271 278 282 279 275 277 281 283 277 268 263 258 253 253 253 252 251 250 250 255 256 250 251 253 252 256 261 264 266 269 272 275 277 279 280 284 287 287 288 290 291
257 264 274 276 277 278 283 281 285 284 281 283 283 284 286 284 283 281 275 262 253 250 249 247 249 249 248 250 251 246 246 249 252 253 257 262 265 268 270 273 276 278 282 284 287 289 291 292 293
263 270 273 281 285 284 285 290 289 289 289 293 288 287 288 291 289 282 272 268 261 251 239 241 242 245 244 245 244 242 244 246 250 252 254 259 262 265 268 273 277 281 285 288 290 291 292 293 294
269 275 280 280 283 286 286 293 291 300 303 297 299 302 303 295 289 279 269 254 250 250 247 235 236 238 239 240 239 243 242 243 247 251 252 256 260 263 268 272 278 282 286 288 290 291 293 294 294
275 276 279 284 294 295 298 299 306 309 306 298 295 295 295 290 287 276 260 249 247 248 251 237 231 234 236 237 238 238 239 242 245 249 252 256 260 264 266 273 278 282 285 287 290 292 293 294 295
270 279 283 290 296 293 303 298 318 303 294 291 292 294 290 277 274 266 246 235 234 237 240 232 224 228 231 236 233 234 236 240 244 247 250 256 261 264 270 276 280 284 285 288 291 293 293 295 295
Height
5809 5811 5813 5815 5819 5820 5824 5827 5826 5829 5831 5832 5834 5837 5839 5841 5836 5841 5840 5843 5844 5845 5846 5847 5848 5849 5849 5850 5851 5853 5854 5855 5856 5855 5856 5856 5856 5856 5856 5856 5856 5856 5856 5857 5857 5857 5857 5857 5857
5804 5805 5808 5809 5813 5815 5821 5822 5820 5824 5824 5831 5831 5833 5835 5834 5835 5836 5838 5839 5841 5842 5844 5845 5846 5846 5847 5847 5848 5850 5851 5852 5853 5854 5853 5853 5853 5853 5853 5853 5853 5853 5853 5854 5854 5855 5854 5854 5854
5799 5800 5803 5804 5808 5813 5817 5815 5814 5817 5822 5824 5827 5829 5829 5827 5833 5835 5834 5835 5837 5839 5840 5841 5842 5844 5845 5844 5845 5846 5847 5848 5849 5850 5850 5850 5850 5850 5850 5849 5850 5850 5850 5850 5851 5851 5851 5851 5852
5793 5795 5798 5799 5805 5810 5811 5809 5809 5813 5818 5820 5822 5825 5823 5826 5830 5833 5830 5832 5833 5836 5837 5837 5838 5839 5841 5842 5843 5843 5843 5844 5845 5845 5846 5846 5846 5846 5846 5846 5846 5847 5847 5847 5847 5847 5848 5848 5848
5787 5790 5791 5794 5802 5806 5806 5805 5804 5811 5811 5815 5817 5818 5816 5822 5827 5827 5827 5828 5829 5832 5832 5833 5834 5835 5836 5837 5839 5839 5839 5839 5840 5840 5841 5841 5842 5842 5842 5843 5844 5844 5844 5844 5844 5844 5845 5845 5845
5781 5785 5786 5790 5797 5800 5800 5800 5800 5805 5806 5809 5814 5812 5809 5819 5820 5823 5824 5824 5825 5827 5828 5829 5830 5831 5832 5832 5834 5834 5834 5835 5836 5836 5836 5836 5837 5838 5838 5839 5840 5841 5841 5841 5841 5841 5842 5842 5842
5777 5780 5782 5785 5790 5793 5796 5797 5793 5799 5800 5804 5806 5808 5805 5809 5817 5818 5819 5819 5821 5823 5825 5825 5827 5828 5828 5829 5830 5831 5831 5832 5832 5833 5833 5834 5833 5834 5835 5836 5836 5837 5838 5838 5838 5838 5839 5839 5838
5771 5773 5776 5780 5785 5792 5793 5790 5789 5793 5796 5797 5798 5806 5796 5801 5810 5811 5813 5815 5816 5819 5822 5822 5823 5824 5825 5826 5826 5827 5828 5828 5829 5829 5829 5830 5830 5831 5832 5832 5833 5833 5834 5834 5835 5835 5835 5835 5835
5764 5766 5770 5778 5780 5788 5786 5783 5779 5787 5788 5791 5794 5799 5795 5796 5805 5806 5807 5809 5811 5813 5815 5819 5819 5821 5822 5822 5822 5822 5823 5824 5825 5825 5826 5826 5827 5827 5827 5828 5828 5829 5830 5830 5830 5831 5831 5831 5831
5757 5759 5766 5771 5774 5776 5777 5775 5775 5781 5783 5786 5789 5790 5793 5792 5797 5800 5802 5804 5806 5808 5809 5812 5815 5815 5816 5817 5817 5818 5819 5820 5821 5821 5822 5822 5823 5823 5823 5823 5824 5824 5824 5825 5825 5826 5826 5825 5826
5751 5754 5759 5763 5766 5767 5771 5771 5774 5774 5776 5783 5782 5785 5786 5787 5791 5794 5796 5798 5800 5801 5803 5805 5807 5811 5811 5812 5812 5814 5815 5815 5816 5817 5818 5818 5818 5819 5818 5819 5819 5819 5819 5820 5820 5820 5820 5820 5820
5743 5747 5750 5755 5756 5761 5766 5766 5764 5767 5773 5773 5775 5777 5779 5784 5787 5788 5791 5791 5793 5794 5796 5799 5799 5801 5806 5806 5807 5808 5810 5810 5811 5812 5812 5813 5813 5813 5813 5814 5814 5814 5814 5814 5814 5815 5815 5814 5814
5734 5738 5743 5746 5748 5755 5759 5759 5761 5761 5762 5770 5771 5772 5774 5778 5782 5782 5783 5785 5786 5788 5790 5792 5793 5794 5797 5799 5800 5802 5804 5805 5806 5806 5807 5808 5808 5808 5808 5809 5808 5809 5808 5808 5808 5809 5809 5808 5807
5725 5730 5736 5739 5743 5748 5751 5753 5753 5755 5761 5762 5762 5764 5768 5769 5775 5774 5776 5780 5781 5781 5782 5785 5785 5787 5788 5792 5793 5794 5796 5798 5799 5801 5800 5801 5802 5802 5801 5802 5802 5802 5801 5801 5802 5801 5801 5801 5800
5718 5725 5728 5731 5735 5738 5742 5746 5748 5750 5751 5754 5756 5757 5760 5763 5765 5768 5770 5772 5775 5775 5775 5777 5780 5781 5781 5784 5787 5788 5789 5792 5792 5793 5794 5794 5795 5795 5795 5795 5795 5795 5795 5795 5795 5795 5794 5794 5793
5712 5715 5720 5725 5727 5730 5734 5740 5742 5741 5744 5748 5749 5750 5752 5755 5758 5760 5763 5764 5767 5769 5768 5770 5773 5775 5776 5777 5779 5781 5783 5784 5787 5786 5789 5788 5790 5789 5789 5789 5789 5789 5789 5789 5788 5788 5787 5786 5787
5704 5708 5712 5714 5718 5722 5726 5731 5733 5734 5738 5741 5742 5743 5746 5748 5751 5753 5756 5758 5760 5761 5763 5765 5766 5770 5771 5770 5772 5773 5775 5778 5782 5779 5783 5783 5783 5783 5783 5783 5783 5782 5782 5782 5781 5780 5781 5780 5779
5697 5700 5702 5706 5709 5715 5718 5723 5727 5729 5731 5734 5736 5738 5740 5741 5743 5746 5748 5751 5754 5755 5757 5757 5759 5762 5765 5765 5765 5767 5768 5770 5774 5774 5775 5778 5777 5777 5777 5777 5776 5776 5775 5775 5774 5773 5773 5772 5771
5689 5693 5698 5699 5703 5707 5711 5715 5720 5721 5724 5728 5729 5730 5732 5733 5735 5738 5739 5742 5745 5748 5749 5750 5753 5755 5757 5758 5760 5761 5760 5762 5765 5766 5769 5770 5770 5770 5770 5770 5769 5768 5767 5767 5767 5766 5765 5764 5763
5685 5689 5692 5694 5695 5698 5703 5709 5711 5713 5717 5718 5721 5722 5724 5724 5726 5728 5732 5734 5736 5738 5741 5742 5744 5747 5750 5750 5752 5752 5752 5755 5756 5760 5762 5763 5763 5763 5763 5763 5762 5761 5760 5760 5759 5758 5757 5755 5754
5680 5683 5686 5689 5690 5692 5694 5701 5703 5707 5710 5712 5712 5713 5714 5715 5717 5718 5720 5724 5727 5729 5731 5733 5734 5737 5740 5744 5742 5742 5747 5749 5749 5751 5752 5753 5754 5754 5755 5755 5755 5753 5752 5751 5751 5750 5748 5746 5744
5676 5678 5682 5684 5686 5687 5689 5690 5698 5700 5702 5702 5702 5702 5703 5703 5703 5706 5709 5711 5714 5718 5722 5723 5725 5726 5728 5732 5733 5736 5739 5741 5742 5743 5744 5745 5747 5747 5747 5747 5746 5746 5744 5743 5742 5741 5740 5738 5736
5673 5676 5678 5679 5680 5682 5685 5684 5694 5694 5694 5691 5688 5689 5690 5690 5692 5694 5697 5699 5701 5704 5707 5712 5713 5716 5717 5719 5725 5727 5730 5732 5734 5736 5737 5738 5738 5738 5739 5739 5738 5738 5736 5735 5733 5731 5730 5728 5726
5669 5671 5672 5672 5673 5675 5676 5678 5690 5678 5682 5678 5673 5671 5672 5671 5676 5678 5681 5685 5688 5691 5694 5697 5701 5704 5706 5709 5713 5717 5721 5724 5725 5726 5729 5730 5729 5730 5731 5731 5731 5730 5728 5727 5725 5723 5720 5718 5715
5664 5665 5665 5666 5666 5668 5664 5668 5678 5668 5664 5661 5657 5656 5654 5650 5651 5655 5662 5666 5670 5674 5679 5682 5687 5691 5694 5697 5701 5708 5711 5714 5715 5717 5719 5720 5721 5722 5722 5723 5722 5720 5719 5717 5715 5713 5711 5708 5705
5659 5660 5660 5657 5657 5657 5656 5658 5659 5656 5652 5644 5640 5639 5640 5636 5633 5638 5642 5645 5647 5653 5661 5666 5672 5677 5683 5685 5690 5696 5698 5703 5706 5708 5709 5711 5712 5713 5714 5713 5713 5711 5710 5709 5707 5705 5701 5698 5695
5654 5653 5652 5651 5650 5645 5645 5647 5646 5641 5642 5636 5631 5624 5622 5620 5615 5620 5623 5629 5633 5634 5639 5647 5655 5662 5667 5673 5678 5683 5687 5694 5696 5698 5699 5701 5703 5704 5704 5704 5704 5702 5701 5700 5698 5695 5692 5689 5685
5646 5648 5647 5645 5641 5638 5636 5634 5630 5627 5624 5620 5615 5606 5603 5599 5597 5601 5606 5609 5613 5618 5623 5629 5638 5645 5652 5660 5665 5672 5678 5683 5685 5688 5690 5692 5694 5695 5696 5695 5695 5694 5693 5691 5688 5685 5682 5679 5674
5642 5641 5641 5637 5636 5629 5625 5622 5618 5616 5607 5602 5601 5596 5590 5584 5580 5582 5587 5588 5595 5602 5608 5614 5622 5631 5640 5646 5656 5663 5669 5672 5675 5678 5682 5684 5685 5686 5687 5687 5686 5684 5683 5681 5678 5675 5672 5667 5663
5636 5637 5634 5630 5629 5620 5619 5607 5613 5605 5597 5589 5584 5580 5576 5571 5568 5570 5573 5574 5578 5586 5594 5601 5608 5618 5627 5638 5647 5653 5657 5661 5666 5670 5673 5674 5676 5677 5677 5678 5677 5675 5673 5671 5668 5665 5661 5656 5651